Time,TemperatureF,DewpointF,PressureIn,WindDirection,WindDirectionDegrees,WindSpeedMPH,WindSpeedGustMPH,Humidity,HourlyPrecipIn,Conditions,Clouds,dailyrainin,SoftwareType,DateUTC
2013-10-18 00:00:00,62.5,61.0,29.67,SW,223,1.0,1.0,95,0.00,,,0.02,Wunderground v.1.12,2013-10-18 04:00:00,
2013-10-18 00:02:00,62.5,61.0,29.67,SW,222,1.0,1.0,95,0.00,,,0.02,Wunderground v.1.12,2013-10-18 04:02:00,
2013-10-18 00:04:00,62.4,60.9,29.67,SW,228,1.0,1.0,95,0.00,,,0.02,Wunderground v.1.12,2013-10-18 04:04:00,
2013-10-18 00:06:00,62.4,60.9,29.66,SW,214,1.0,1.0,95,0.00,,,0.02,Wunderground v.1.12,2013-10-18 04:06:00,
2013-10-18 00:10:00,62.3,60.6,29.66,SW,228,0.0,1.0,94,0.00,,,0.02,Wunderground v.1.12,2013-10-18 04:10:00,
2013-10-18 00:15:00,62.2,60.5,29.66,SW,228,0.0,1.0,94,0.00,,,0.02,Wunderground v.1.12,2013-10-18 04:15:00,
2013-10-18 00:20:00,62.0,60.3,29.66,SW,229,1.0,1.0,94,0.00,,,0.02,Wunderground v.1.12,2013-10-18 04:20:00,
2013-10-18 00:25:00,61.8,60.1,29.66,SW,223,0.0,0.0,94,0.00,,,0.02,Wunderground v.1.12,2013-10-18 04:25:00,
2013-10-18 00:30:00,61.7,60.0,29.66,SW,225,1.0,1.0,94,0.00,,,0.02,Wunderground v.1.12,2013-10-18 04:30:00,
2013-10-18 00:36:00,61.5,59.5,29.67,SW,234,0.0,1.0,93,0.00,,,0.02,Wunderground v.1.12,2013-10-18 04:36:00,
2013-10-18 00:42:00,61.3,59.0,29.67,WSW,257,0.0,1.0,92,0.00,,,0.02,Wunderground v.1.12,2013-10-18 04:42:00,
2013-10-18 00:47:00,61.0,58.7,29.67,SW,229,1.0,1.0,92,0.00,,,0.02,Wunderground v.1.12,2013-10-18 04:47:00,
2013-10-18 00:54:00,60.8,58.2,29.68,WSW,252,0.0,1.0,91,0.00,,,0.02,Wunderground v.1.12,2013-10-18 04:54:00,
2013-10-18 00:59:00,60.5,57.6,29.68,SW,223,1.0,1.0,90,0.00,,,0.02,Wunderground v.1.12,2013-10-18 04:59:00,
2013-10-18 01:04:00,60.2,56.9,29.68,SW,215,1.0,2.0,89,0.00,,,0.02,Wunderground v.1.12,2013-10-18 05:04:00,
2013-10-18 01:10:00,59.7,55.5,29.68,NW,317,1.0,1.0,86,0.00,,,0.02,Wunderground v.1.12,2013-10-18 05:10:00,
2013-10-18 01:16:00,59.2,55.0,29.68,SW,228,1.0,1.0,86,0.00,,,0.02,Wunderground v.1.12,2013-10-18 05:16:00,
2013-10-18 01:22:00,59.0,54.5,29.69,South,189,1.0,1.0,85,0.00,,,0.02,Wunderground v.1.12,2013-10-18 05:22:00,
2013-10-18 01:27:00,58.8,54.0,29.69,SW,232,0.0,2.0,84,0.00,,,0.02,Wunderground v.1.12,2013-10-18 05:27:00,
2013-10-18 01:34:00,58.7,53.2,29.69,South,182,1.0,4.0,82,0.00,,,0.02,Wunderground v.1.12,2013-10-18 05:34:00,
2013-10-18 01:39:00,58.6,53.1,29.69,SW,235,1.0,2.0,82,0.00,,,0.02,Wunderground v.1.12,2013-10-18 05:39:00,
2013-10-18 01:44:00,58.4,52.9,29.69,SE,138,2.0,5.0,82,0.00,,,0.02,Wunderground v.1.12,2013-10-18 05:44:00,
2013-10-18 01:49:00,58.1,52.3,29.69,SW,223,1.0,2.0,81,0.00,,,0.02,Wunderground v.1.12,2013-10-18 05:49:00,
2013-10-18 01:54:00,58.0,52.5,29.70,WSW,246,0.0,5.0,82,0.00,,,0.02,Wunderground v.1.12,2013-10-18 05:54:00,
2013-10-18 02:00:00,57.8,52.3,29.70,SW,236,1.0,1.0,82,0.00,,,0.02,Wunderground v.1.12,2013-10-18 06:00:00,
2013-10-18 02:05:00,57.7,52.2,29.70,SW,220,1.0,1.0,82,0.00,,,0.02,Wunderground v.1.12,2013-10-18 06:05:00,
2013-10-18 02:10:00,57.6,52.1,29.71,WSW,243,0.0,2.0,82,0.00,,,0.02,Wunderground v.1.12,2013-10-18 06:10:00,
2013-10-18 02:15:00,57.5,52.0,29.71,SW,235,0.0,1.0,82,0.00,,,0.02,Wunderground v.1.12,2013-10-18 06:15:00,
2013-10-18 02:20:00,57.2,51.8,29.72,WSW,238,2.0,2.0,82,0.00,,,0.02,Wunderground v.1.12,2013-10-18 06:20:00,
2013-10-18 02:25:00,57.0,51.6,29.72,SE,128,1.0,3.0,82,0.00,,,0.02,Wunderground v.1.12,2013-10-18 06:25:00,
2013-10-18 02:30:00,56.9,51.5,29.72,SW,223,0.0,2.0,82,0.00,,,0.02,Wunderground v.1.12,2013-10-18 06:30:00,
2013-10-18 02:36:00,56.6,51.5,29.73,SW,231,0.0,1.0,83,0.00,,,0.02,Wunderground v.1.12,2013-10-18 06:36:00,
2013-10-18 02:41:00,56.5,51.4,29.73,West,264,0.0,1.0,83,0.00,,,0.02,Wunderground v.1.12,2013-10-18 06:41:00,
2013-10-18 02:46:00,56.3,51.5,29.73,WSW,252,0.0,0.0,84,0.00,,,0.02,Wunderground v.1.12,2013-10-18 06:46:00,
2013-10-18 02:51:00,56.1,51.7,29.73,WSW,247,0.0,0.0,85,0.00,,,0.02,Wunderground v.1.12,2013-10-18 06:51:00,
2013-10-18 02:56:00,55.8,51.0,29.73,SW,236,0.0,1.0,84,0.00,,,0.02,Wunderground v.1.12,2013-10-18 06:56:00,
2013-10-18 03:01:00,55.7,50.6,29.73,WSW,238,0.0,1.0,83,0.00,,,0.02,Wunderground v.1.12,2013-10-18 07:01:00,
2013-10-18 03:06:00,55.6,50.2,29.73,SW,228,1.0,4.0,82,0.00,,,0.02,Wunderground v.1.12,2013-10-18 07:06:00,
2013-10-18 03:11:00,55.6,49.9,29.73,SW,232,0.0,1.0,81,0.00,,,0.02,Wunderground v.1.12,2013-10-18 07:11:00,
2013-10-18 03:16:00,55.5,50.1,29.73,SW,227,0.0,1.0,82,0.00,,,0.02,Wunderground v.1.12,2013-10-18 07:16:00,
2013-10-18 03:21:00,55.4,49.7,29.73,SW,234,0.0,1.0,81,0.00,,,0.02,Wunderground v.1.12,2013-10-18 07:21:00,
2013-10-18 03:27:00,55.4,49.7,29.73,NE,37,3.0,3.0,81,0.00,,,0.02,Wunderground v.1.12,2013-10-18 07:27:00,
2013-10-18 03:32:00,55.3,49.2,29.73,SW,231,0.0,1.0,80,0.00,,,0.02,Wunderground v.1.12,2013-10-18 07:32:00,
2013-10-18 03:37:00,55.1,49.4,29.74,WNW,287,1.0,1.0,81,0.00,,,0.02,Wunderground v.1.12,2013-10-18 07:37:00,
2013-10-18 03:42:00,55.0,49.3,29.74,WSW,246,2.0,2.0,81,0.00,,,0.02,Wunderground v.1.12,2013-10-18 07:42:00,
2013-10-18 03:47:00,54.7,49.0,29.74,SW,236,0.0,1.0,81,0.00,,,0.02,Wunderground v.1.12,2013-10-18 07:47:00,
2013-10-18 03:52:00,54.5,49.1,29.74,SSW,208,1.0,1.0,82,0.00,,,0.00,Wunderground v.1.12,2013-10-18 07:52:00,
2013-10-18 03:57:00,54.3,48.9,29.74,WSW,240,0.0,0.0,82,0.00,,,0.00,Wunderground v.1.12,2013-10-18 07:57:00,
2013-10-18 04:02:00,54.1,48.4,29.74,SW,234,1.0,4.0,81,0.00,,,0.00,Wunderground v.1.12,2013-10-18 08:02:00,
2013-10-18 04:07:00,54.1,48.4,29.75,SW,235,0.0,0.0,81,0.00,,,0.00,Wunderground v.1.12,2013-10-18 08:07:00,
2013-10-18 04:12:00,53.8,47.8,29.75,WSW,238,1.0,1.0,80,0.00,,,0.00,Wunderground v.1.12,2013-10-18 08:12:00,
2013-10-18 04:17:00,53.6,47.6,29.75,WSW,255,0.0,1.0,80,0.00,,,0.00,Wunderground v.1.12,2013-10-18 08:17:00,
2013-10-18 04:22:00,53.4,47.4,29.76,WSW,240,0.0,1.0,80,0.00,,,0.00,Wunderground v.1.12,2013-10-18 08:22:00,
2013-10-18 04:27:00,53.2,46.9,29.76,WSW,240,1.0,1.0,79,0.00,,,0.00,Wunderground v.1.12,2013-10-18 08:27:00,
2013-10-18 04:32:00,53.0,47.0,29.76,SW,232,0.0,1.0,80,0.00,,,0.00,Wunderground v.1.12,2013-10-18 08:32:00,
2013-10-18 04:37:00,52.7,46.4,29.76,West,279,1.0,1.0,79,0.00,,,0.00,Wunderground v.1.12,2013-10-18 08:37:00,
2013-10-18 04:42:00,52.4,46.1,29.76,SW,232,0.0,1.0,79,0.00,,,0.00,Wunderground v.1.12,2013-10-18 08:42:00,
2013-10-18 04:47:00,52.2,46.2,29.76,West,265,0.0,1.0,80,0.00,,,0.00,Wunderground v.1.12,2013-10-18 08:47:00,
2013-10-18 04:53:00,51.9,45.9,29.77,WSW,243,0.0,1.0,80,0.00,,,0.00,Wunderground v.1.12,2013-10-18 08:53:00,
2013-10-18 04:58:00,51.6,45.6,29.77,ENE,77,1.0,1.0,80,0.00,,,0.00,Wunderground v.1.12,2013-10-18 08:58:00,
2013-10-18 05:03:00,51.4,45.4,29.77,SW,223,0.0,1.0,80,0.00,,,0.00,Wunderground v.1.12,2013-10-18 09:03:00,
2013-10-18 05:08:00,51.2,45.2,29.77,WSW,237,0.0,1.0,80,0.00,,,0.00,Wunderground v.1.12,2013-10-18 09:08:00,
2013-10-18 05:13:00,51.1,45.1,29.77,SW,232,0.0,1.0,80,0.00,,,0.00,Wunderground v.1.12,2013-10-18 09:13:00,
2013-10-18 05:18:00,51.1,45.1,29.77,WSW,248,0.0,3.0,80,0.00,,,0.00,Wunderground v.1.12,2013-10-18 09:18:00,
2013-10-18 05:23:00,50.9,44.9,29.78,WSW,252,0.0,1.0,80,0.00,,,0.00,Wunderground v.1.12,2013-10-18 09:23:00,
2013-10-18 05:29:00,50.7,44.8,29.78,WSW,238,2.0,2.0,80,0.00,,,0.00,Wunderground v.1.12,2013-10-18 09:29:00,
2013-10-18 05:34:00,50.7,44.8,29.78,WSW,238,0.0,0.0,80,0.00,,,0.00,Wunderground v.1.12,2013-10-18 09:34:00,
2013-10-18 05:39:00,50.6,44.7,29.78,West,259,0.0,2.0,80,0.00,,,0.00,Wunderground v.1.12,2013-10-18 09:39:00,
2013-10-18 05:44:00,50.5,44.6,29.78,WSW,239,0.0,2.0,80,0.00,,,0.00,Wunderground v.1.12,2013-10-18 09:44:00,
2013-10-18 05:49:00,50.4,44.5,29.78,WSW,251,0.0,1.0,80,0.00,,,0.00,Wunderground v.1.12,2013-10-18 09:49:00,
2013-10-18 05:54:00,50.3,44.7,29.79,WSW,238,0.0,1.0,81,0.00,,,0.00,Wunderground v.1.12,2013-10-18 09:54:00,
2013-10-18 05:59:00,50.3,44.7,29.79,WSW,246,0.0,2.0,81,0.00,,,0.00,Wunderground v.1.12,2013-10-18 09:59:00,
2013-10-18 06:04:00,50.1,44.2,29.79,SW,219,0.0,1.0,80,0.00,,,0.00,Wunderground v.1.12,2013-10-18 10:04:00,
2013-10-18 06:09:00,50.1,44.5,29.80,SW,229,0.0,2.0,81,0.00,,,0.00,Wunderground v.1.12,2013-10-18 10:09:00,
2013-10-18 06:15:00,50.1,44.5,29.80,West,260,0.0,1.0,81,0.00,,,0.00,Wunderground v.1.12,2013-10-18 10:15:00,
2013-10-18 06:20:00,49.9,44.3,29.80,WSW,238,0.0,2.0,81,0.00,,,0.00,Wunderground v.1.12,2013-10-18 10:20:00,
2013-10-18 06:25:00,49.9,44.3,29.81,WSW,242,0.0,0.0,81,0.00,,,0.00,Wunderground v.1.12,2013-10-18 10:25:00,
2013-10-18 06:30:00,49.8,44.5,29.81,SSW,207,0.0,0.0,82,0.00,,,0.00,Wunderground v.1.12,2013-10-18 10:30:00,
2013-10-18 06:35:00,49.8,44.2,29.81,SW,236,0.0,0.0,81,0.00,,,0.00,Wunderground v.1.12,2013-10-18 10:35:00,
2013-10-18 06:40:00,49.7,44.1,29.81,WSW,244,0.0,0.0,81,0.00,,,0.00,Wunderground v.1.12,2013-10-18 10:40:00,
2013-10-18 06:45:00,49.6,44.3,29.81,SW,233,0.0,0.0,82,0.00,,,0.00,Wunderground v.1.12,2013-10-18 10:45:00,
2013-10-18 06:50:00,49.6,44.3,29.81,WSW,240,0.0,0.0,82,0.00,,,0.00,Wunderground v.1.12,2013-10-18 10:50:00,
2013-10-18 06:55:00,49.5,44.2,29.81,WSW,244,0.0,0.0,82,0.00,,,0.00,Wunderground v.1.12,2013-10-18 10:55:00,
2013-10-18 07:00:00,49.5,44.2,29.81,WSW,246,0.0,0.0,82,0.00,,,0.00,Wunderground v.1.12,2013-10-18 11:00:00,
2013-10-18 07:05:00,49.4,44.1,29.81,WSW,242,0.0,0.0,82,0.00,,,0.00,Wunderground v.1.12,2013-10-18 11:05:00,
2013-10-18 07:10:00,49.3,44.4,29.82,West,269,1.0,1.0,83,0.00,,,0.00,Wunderground v.1.12,2013-10-18 11:10:00,
2013-10-18 07:15:00,49.3,44.4,29.82,WSW,239,0.0,0.0,83,0.00,,,0.00,Wunderground v.1.12,2013-10-18 11:15:00,
2013-10-18 07:21:00,49.3,44.4,29.82,SW,231,0.0,0.0,83,0.00,,,0.00,Wunderground v.1.12,2013-10-18 11:21:00,
2013-10-18 07:26:00,49.2,44.3,29.82,WSW,240,0.0,0.0,83,0.00,,,0.00,Wunderground v.1.12,2013-10-18 11:26:00,
2013-10-18 07:31:00,49.2,43.9,29.82,WSW,238,0.0,1.0,82,0.00,,,0.00,Wunderground v.1.12,2013-10-18 11:31:00,
2013-10-18 07:36:00,49.2,44.3,29.83,WSW,244,0.0,1.0,83,0.00,,,0.00,Wunderground v.1.12,2013-10-18 11:36:00,
2013-10-18 07:41:00,49.1,44.2,29.83,WSW,237,0.0,1.0,83,0.00,,,0.00,Wunderground v.1.12,2013-10-18 11:41:00,
2013-10-18 07:46:00,49.1,43.8,29.83,West,272,0.0,1.0,82,0.00,,,0.00,Wunderground v.1.12,2013-10-18 11:46:00,
2013-10-18 07:51:00,49.2,43.9,29.84,SW,236,1.0,1.0,82,0.00,,,0.00,Wunderground v.1.12,2013-10-18 11:51:00,
2013-10-18 07:56:00,49.2,43.9,29.84,WSW,246,0.0,2.0,82,0.00,,,0.00,Wunderground v.1.12,2013-10-18 11:56:00,
2013-10-18 08:01:00,49.3,43.7,29.84,SW,224,1.0,1.0,81,0.00,,,0.00,Wunderground v.1.12,2013-10-18 12:01:00,
2013-10-18 08:06:00,49.4,43.8,29.85,SSW,209,1.0,2.0,81,0.00,,,0.00,Wunderground v.1.12,2013-10-18 12:06:00,
2013-10-18 08:11:00,49.5,43.9,29.85,WSW,240,0.0,1.0,81,0.00,,,0.00,Wunderground v.1.12,2013-10-18 12:11:00,
2013-10-18 08:16:00,49.6,44.0,29.85,SW,233,1.0,1.0,81,0.00,,,0.00,Wunderground v.1.12,2013-10-18 12:16:00,
2013-10-18 08:21:00,49.6,44.0,29.85,SSW,194,1.0,1.0,81,0.00,,,0.00,Wunderground v.1.12,2013-10-18 12:21:00,
2013-10-18 08:26:00,49.7,44.1,29.85,SW,232,0.0,1.0,81,0.00,,,0.00,Wunderground v.1.12,2013-10-18 12:26:00,
2013-10-18 08:31:00,49.7,43.8,29.85,SW,226,0.0,1.0,80,0.00,,,0.00,Wunderground v.1.12,2013-10-18 12:31:00,
2013-10-18 08:36:00,49.8,44.2,29.86,SW,234,0.0,1.0,81,0.00,,,0.00,Wunderground v.1.12,2013-10-18 12:36:00,
2013-10-18 08:41:00,49.9,44.0,29.86,SW,234,2.0,2.0,80,0.00,,,0.00,Wunderground v.1.12,2013-10-18 12:41:00,
2013-10-18 08:46:00,50.1,44.2,29.86,SW,216,2.0,3.0,80,0.00,,,0.00,Wunderground v.1.12,2013-10-18 12:46:00,
2013-10-18 08:51:00,50.3,44.4,29.86,WSW,244,1.0,1.0,80,0.00,,,0.00,Wunderground v.1.12,2013-10-18 12:51:00,
2013-10-18 08:56:00,50.4,44.1,29.86,WSW,248,0.0,1.0,79,0.00,,,0.00,Wunderground v.1.12,2013-10-18 12:56:00,
2013-10-18 09:02:00,50.6,44.0,29.86,WSW,253,0.0,2.0,78,0.00,,,0.00,Wunderground v.1.12,2013-10-18 13:02:00,
2013-10-18 09:07:00,50.8,44.2,29.87,SW,232,0.0,1.0,78,0.00,,,0.00,Wunderground v.1.12,2013-10-18 13:07:00,
2013-10-18 09:12:00,51.0,44.0,29.87,West,263,0.0,2.0,77,0.00,,,0.00,Wunderground v.1.12,2013-10-18 13:12:00,
2013-10-18 09:17:00,51.2,44.2,29.87,SSW,200,1.0,2.0,77,0.00,,,0.00,Wunderground v.1.12,2013-10-18 13:17:00,
2013-10-18 09:22:00,51.3,44.3,29.88,SW,236,1.0,2.0,77,0.00,,,0.00,Wunderground v.1.12,2013-10-18 13:22:00,
2013-10-18 09:27:00,51.6,44.3,29.88,SW,227,1.0,1.0,76,0.00,,,0.00,Wunderground v.1.12,2013-10-18 13:27:00,
2013-10-18 09:32:00,51.9,44.2,29.88,WSW,252,0.0,1.0,75,0.00,,,0.00,Wunderground v.1.12,2013-10-18 13:32:00,
2013-10-18 09:37:00,52.0,44.3,29.88,South,182,1.0,3.0,75,0.00,,,0.00,Wunderground v.1.12,2013-10-18 13:37:00,
2013-10-18 09:42:00,52.1,44.1,29.88,NW,305,0.0,1.0,74,0.00,,,0.00,Wunderground v.1.12,2013-10-18 13:42:00,
2013-10-18 09:47:00,52.2,44.5,29.88,SW,233,1.0,1.0,75,0.00,,,0.00,Wunderground v.1.12,2013-10-18 13:47:00,
2013-10-18 09:52:00,52.2,44.2,29.88,WSW,244,0.0,2.0,74,0.00,,,0.00,Wunderground v.1.12,2013-10-18 13:52:00,
2013-10-18 09:57:00,52.6,44.5,29.88,WSW,242,0.0,1.0,74,0.00,,,0.00,Wunderground v.1.12,2013-10-18 13:57:00,
2013-10-18 10:02:00,52.8,44.4,29.88,SW,231,0.0,3.0,73,0.00,,,0.00,Wunderground v.1.12,2013-10-18 14:02:00,
2013-10-18 10:07:00,53.1,44.7,29.88,East,95,1.0,1.0,73,0.00,,,0.00,Wunderground v.1.12,2013-10-18 14:07:00,
2013-10-18 10:12:00,53.4,44.6,29.88,SW,227,2.0,3.0,72,0.00,,,0.00,Wunderground v.1.12,2013-10-18 14:12:00,
2013-10-18 10:17:00,53.7,44.5,29.88,SSW,209,0.0,2.0,71,0.00,,,0.00,Wunderground v.1.12,2013-10-18 14:17:00,
2013-10-18 10:22:00,53.9,44.0,29.88,SW,231,1.0,3.0,69,0.00,,,0.00,Wunderground v.1.12,2013-10-18 14:22:00,
2013-10-18 10:27:00,54.1,44.2,29.88,NNW,329,1.0,5.0,69,0.00,,,0.00,Wunderground v.1.12,2013-10-18 14:27:00,
2013-10-18 10:33:00,54.3,44.0,29.88,WSW,242,0.0,1.0,68,0.00,,,0.00,Wunderground v.1.12,2013-10-18 14:33:00,
2013-10-18 10:38:00,54.5,43.8,29.89,West,268,0.0,5.0,67,0.00,,,0.00,Wunderground v.1.12,2013-10-18 14:38:00,
2013-10-18 10:43:00,54.6,43.9,29.89,SW,234,2.0,3.0,67,0.00,,,0.00,Wunderground v.1.12,2013-10-18 14:43:00,
2013-10-18 10:48:00,54.9,44.1,29.89,West,273,0.0,1.0,67,0.00,,,0.00,Wunderground v.1.12,2013-10-18 14:48:00,
2013-10-18 10:53:00,55.2,44.8,29.89,WSW,250,0.0,3.0,68,0.00,,,0.00,Wunderground v.1.12,2013-10-18 14:53:00,
2013-10-18 10:58:00,55.4,44.2,29.89,SW,227,0.0,3.0,66,0.00,,,0.00,Wunderground v.1.12,2013-10-18 14:58:00,
2013-10-18 11:03:00,55.7,43.7,29.89,SW,224,1.0,3.0,64,0.00,,,0.00,Wunderground v.1.12,2013-10-18 15:03:00,
2013-10-18 11:09:00,56.0,44.0,29.88,SW,216,2.0,3.0,64,0.00,,,0.00,Wunderground v.1.12,2013-10-18 15:09:00,
2013-10-18 11:14:00,56.2,43.8,29.88,WSW,243,0.0,2.0,63,0.00,,,0.00,Wunderground v.1.12,2013-10-18 15:14:00,
2013-10-18 11:19:00,56.5,43.6,29.88,SSW,213,1.0,5.0,62,0.00,,,0.00,Wunderground v.1.12,2013-10-18 15:19:00,
2013-10-18 11:24:00,56.7,44.2,29.89,SW,221,1.0,5.0,63,0.00,,,0.00,Wunderground v.1.12,2013-10-18 15:24:00,
2013-10-18 11:29:00,56.7,43.4,29.89,SW,236,1.0,4.0,61,0.00,,,0.00,Wunderground v.1.12,2013-10-18 15:29:00,
2013-10-18 11:34:00,56.9,43.6,29.89,SW,229,1.0,1.0,61,0.00,,,0.00,Wunderground v.1.12,2013-10-18 15:34:00,
2013-10-18 11:39:00,56.9,43.6,29.89,WSW,240,0.0,2.0,61,0.00,,,0.00,Wunderground v.1.12,2013-10-18 15:39:00,
2013-10-18 11:44:00,57.2,43.9,29.89,SW,219,1.0,3.0,61,0.00,,,0.00,Wunderground v.1.12,2013-10-18 15:44:00,
2013-10-18 11:49:00,57.4,43.6,29.89,ENE,65,1.0,5.0,60,0.00,,,0.00,Wunderground v.1.12,2013-10-18 15:49:00,
2013-10-18 11:54:00,57.4,44.1,29.89,SSW,202,1.0,4.0,61,0.00,,,0.00,Wunderground v.1.12,2013-10-18 15:54:00,
2013-10-18 11:59:00,57.7,43.9,29.89,SW,234,0.0,3.0,60,0.00,,,0.00,Wunderground v.1.12,2013-10-18 15:59:00,
2013-10-18 12:05:00,58.0,44.6,29.89,WSW,253,0.0,3.0,61,0.00,,,0.00,Wunderground v.1.12,2013-10-18 16:05:00,
2013-10-18 12:10:00,58.5,44.7,29.89,SW,228,1.0,1.0,60,0.00,,,0.00,Wunderground v.1.12,2013-10-18 16:10:00,
2013-10-18 12:15:00,59.0,44.2,29.89,SW,225,0.0,1.0,58,0.00,,,0.00,Wunderground v.1.12,2013-10-18 16:15:00,
2013-10-18 12:20:00,59.1,43.9,29.89,SW,223,1.0,1.0,57,0.00,,,0.00,Wunderground v.1.12,2013-10-18 16:20:00,
2013-10-18 12:25:00,58.8,43.1,29.89,SW,234,0.0,1.0,56,0.00,,,0.00,Wunderground v.1.12,2013-10-18 16:25:00,
2013-10-18 12:30:00,58.9,43.7,29.89,WSW,255,1.0,1.0,57,0.00,,,0.00,Wunderground v.1.12,2013-10-18 16:30:00,
2013-10-18 12:35:00,59.0,43.3,29.89,SW,221,1.0,2.0,56,0.00,,,0.00,Wunderground v.1.12,2013-10-18 16:35:00,
2013-10-18 12:40:00,59.0,43.3,29.89,South,177,2.0,4.0,56,0.00,,,0.00,Wunderground v.1.12,2013-10-18 16:40:00,
2013-10-18 12:46:00,58.7,44.0,29.89,SW,225,0.0,3.0,58,0.00,,,0.00,Wunderground v.1.12,2013-10-18 16:46:00,
2013-10-18 12:51:00,58.4,44.1,29.89,WSW,242,0.0,1.0,59,0.00,,,0.00,Wunderground v.1.12,2013-10-18 16:51:00,
2013-10-18 12:56:00,58.6,44.3,29.89,NNE,32,3.0,3.0,59,0.00,,,0.00,Wunderground v.1.12,2013-10-18 16:56:00,
2013-10-18 13:01:00,59.2,44.0,29.89,SSW,213,1.0,3.0,57,0.00,,,0.00,Wunderground v.1.12,2013-10-18 17:01:00,
2013-10-18 13:06:00,59.4,43.7,29.89,SSW,197,3.0,3.0,56,0.00,,,0.00,Wunderground v.1.12,2013-10-18 17:06:00,
2013-10-18 13:11:00,58.8,43.6,29.89,SW,226,0.0,1.0,57,0.00,,,0.00,Wunderground v.1.12,2013-10-18 17:11:00,
2013-10-18 13:16:00,59.1,43.4,29.89,SSW,212,1.0,1.0,56,0.00,,,0.00,Wunderground v.1.12,2013-10-18 17:16:00,
2013-10-18 13:21:00,59.5,43.8,29.89,SW,226,0.0,2.0,56,0.00,,,0.00,Wunderground v.1.12,2013-10-18 17:21:00,
2013-10-18 13:26:00,59.1,42.9,29.89,West,273,1.0,2.0,55,0.00,,,0.00,Wunderground v.1.12,2013-10-18 17:26:00,
2013-10-18 13:31:00,58.8,43.1,29.89,SW,215,1.0,2.0,56,0.00,,,0.00,Wunderground v.1.12,2013-10-18 17:31:00,
2013-10-18 13:35:00,58.8,44.0,29.89,WSW,248,0.0,2.0,58,0.00,,,0.00,Wunderground v.1.12,2013-10-18 17:35:00,
2013-10-18 13:40:00,58.5,43.3,29.89,WSW,244,1.0,2.0,57,0.00,,,0.00,Wunderground v.1.12,2013-10-18 17:40:00,
2013-10-18 13:45:00,58.4,43.7,29.89,SW,234,1.0,3.0,58,0.00,,,0.00,Wunderground v.1.12,2013-10-18 17:45:00,
2013-10-18 13:50:00,58.9,43.7,29.89,SW,230,0.0,1.0,57,0.00,,,0.00,Wunderground v.1.12,2013-10-18 17:50:00,
2013-10-18 13:55:00,59.4,44.2,29.88,SW,223,1.0,1.0,57,0.00,,,0.00,Wunderground v.1.12,2013-10-18 17:55:00,
2013-10-18 14:00:00,59.7,44.0,29.88,WNW,293,1.0,1.0,56,0.00,,,0.00,Wunderground v.1.12,2013-10-18 18:00:00,
2013-10-18 14:05:00,60.3,44.1,29.88,NE,45,3.0,3.0,55,0.00,,,0.00,Wunderground v.1.12,2013-10-18 18:05:00,
2013-10-18 14:10:00,60.3,43.6,29.88,SW,227,1.0,2.0,54,0.00,,,0.00,Wunderground v.1.12,2013-10-18 18:10:00,
2013-10-18 14:15:00,60.1,43.4,29.88,SSW,207,1.0,2.0,54,0.00,,,0.00,Wunderground v.1.12,2013-10-18 18:15:00,
2013-10-18 14:20:00,60.6,43.9,29.88,South,179,2.0,2.0,54,0.00,,,0.00,Wunderground v.1.12,2013-10-18 18:20:00,
2013-10-18 14:25:00,60.5,43.3,29.88,SW,225,1.0,1.0,53,0.00,,,0.00,Wunderground v.1.12,2013-10-18 18:25:00,
2013-10-18 14:31:00,60.2,43.0,29.88,SW,225,0.0,1.0,53,0.00,,,0.00,Wunderground v.1.12,2013-10-18 18:31:00,
2013-10-18 14:36:00,60.1,42.9,29.88,SSW,213,1.0,1.0,53,0.00,,,0.00,Wunderground v.1.12,2013-10-18 18:36:00,
2013-10-18 14:41:00,60.2,43.5,29.88,West,264,0.0,2.0,54,0.00,,,0.00,Wunderground v.1.12,2013-10-18 18:41:00,
2013-10-18 14:46:00,60.3,43.6,29.88,West,272,1.0,3.0,54,0.00,,,0.00,Wunderground v.1.12,2013-10-18 18:46:00,
2013-10-18 14:51:00,60.4,43.2,29.88,SSW,192,1.0,1.0,53,0.00,,,0.00,Wunderground v.1.12,2013-10-18 18:51:00,
2013-10-18 14:56:00,60.5,43.3,29.88,SW,227,2.0,2.0,53,0.00,,,0.00,Wunderground v.1.12,2013-10-18 18:56:00,
2013-10-18 15:01:00,60.4,43.2,29.88,SSW,202,2.0,2.0,53,0.00,,,0.00,Wunderground v.1.12,2013-10-18 19:01:00,
2013-10-18 15:06:00,60.3,42.6,29.88,SW,217,0.0,4.0,52,0.00,,,0.00,Wunderground v.1.12,2013-10-18 19:06:00,
2013-10-18 15:11:00,60.3,42.6,29.88,SW,234,1.0,1.0,52,0.00,,,0.00,Wunderground v.1.12,2013-10-18 19:11:00,
2013-10-18 15:16:00,60.7,42.5,29.88,SW,231,1.0,4.0,51,0.00,,,0.00,Wunderground v.1.12,2013-10-18 19:16:00,
2013-10-18 15:21:00,60.5,42.3,29.88,SSW,205,1.0,3.0,51,0.00,,,0.00,Wunderground v.1.12,2013-10-18 19:21:00,
2013-10-18 15:26:00,60.5,42.3,29.88,WSW,238,1.0,3.0,51,0.00,,,0.00,Wunderground v.1.12,2013-10-18 19:26:00,
2013-10-18 15:31:00,60.4,41.7,29.88,SW,224,1.0,3.0,50,0.00,,,0.00,Wunderground v.1.12,2013-10-18 19:31:00,
2013-10-18 15:36:00,60.3,42.6,29.88,SE,144,2.0,2.0,52,0.00,,,0.00,Wunderground v.1.12,2013-10-18 19:36:00,
2013-10-18 15:41:00,60.7,43.0,29.88,SW,224,0.0,2.0,52,0.00,,,0.00,Wunderground v.1.12,2013-10-18 19:41:00,
2013-10-18 15:46:00,60.9,43.6,29.88,SW,230,1.0,1.0,53,0.00,,,0.00,Wunderground v.1.12,2013-10-18 19:46:00,
2013-10-18 15:51:00,61.3,44.0,29.88,WSW,238,1.0,1.0,53,0.00,,,0.00,Wunderground v.1.12,2013-10-18 19:51:00,
2013-10-18 15:56:00,61.2,42.4,29.88,WSW,239,1.0,4.0,50,0.00,,,0.00,Wunderground v.1.12,2013-10-18 19:56:00,
2013-10-18 16:01:00,60.8,42.5,29.88,SW,223,0.0,1.0,51,0.00,,,0.00,Wunderground v.1.12,2013-10-18 20:01:00,
2013-10-18 16:07:00,60.9,43.6,29.88,WSW,241,0.0,1.0,53,0.00,,,0.00,Wunderground v.1.12,2013-10-18 20:07:00,
2013-10-18 16:12:00,60.9,43.1,29.88,WSW,241,0.0,1.0,52,0.00,,,0.00,Wunderground v.1.12,2013-10-18 20:12:00,
2013-10-18 16:17:00,60.7,43.0,29.88,WSW,240,0.0,2.0,52,0.00,,,0.00,Wunderground v.1.12,2013-10-18 20:17:00,
2013-10-18 16:22:00,60.2,42.0,29.88,ENE,61,1.0,4.0,51,0.00,,,0.00,Wunderground v.1.12,2013-10-18 20:22:00,
2013-10-18 16:27:00,59.9,41.7,29.88,SW,235,0.0,2.0,51,0.00,,,0.00,Wunderground v.1.12,2013-10-18 20:27:00,
2013-10-18 16:32:00,59.7,42.0,29.88,SW,234,1.0,1.0,52,0.00,,,0.00,Wunderground v.1.12,2013-10-18 20:32:00,
2013-10-18 16:37:00,59.5,41.9,29.88,SW,227,1.0,2.0,52,0.00,,,0.00,Wunderground v.1.12,2013-10-18 20:37:00,
2013-10-18 16:42:00,59.4,41.8,29.88,SW,229,1.0,2.0,52,0.00,,,0.00,Wunderground v.1.12,2013-10-18 20:42:00,
2013-10-18 16:48:00,59.3,41.7,29.88,SW,232,1.0,1.0,52,0.00,,,0.00,Wunderground v.1.12,2013-10-18 20:48:00,
2013-10-18 16:53:00,59.2,42.1,29.88,WSW,240,0.0,2.0,53,0.00,,,0.00,Wunderground v.1.12,2013-10-18 20:53:00,
2013-10-18 16:59:00,59.0,41.4,29.88,SW,232,1.0,1.0,52,0.00,,,0.00,Wunderground v.1.12,2013-10-18 20:59:00,
2013-10-18 17:04:00,58.9,41.8,29.88,WSW,244,0.0,2.0,53,0.00,,,0.00,Wunderground v.1.12,2013-10-18 21:04:00,
2013-10-18 17:09:00,58.9,42.3,29.89,SW,236,0.0,1.0,54,0.00,,,0.00,Wunderground v.1.12,2013-10-18 21:09:00,
2013-10-18 17:14:00,58.8,41.7,29.89,SW,234,0.0,2.0,53,0.00,,,0.00,Wunderground v.1.12,2013-10-18 21:14:00,
2013-10-18 17:19:00,58.5,41.9,29.89,ENE,57,0.0,3.0,54,0.00,,,0.00,Wunderground v.1.12,2013-10-18 21:19:00,
2013-10-18 17:25:00,58.4,41.3,29.89,WSW,248,0.0,1.0,53,0.00,,,0.00,Wunderground v.1.12,2013-10-18 21:25:00,
2013-10-18 17:30:00,58.2,41.6,29.89,SW,231,0.0,1.0,54,0.00,,,0.00,Wunderground v.1.12,2013-10-18 21:30:00,
2013-10-18 17:35:00,57.9,42.3,29.89,SW,231,0.0,0.0,56,0.00,,,0.00,Wunderground v.1.12,2013-10-18 21:35:00,
2013-10-18 17:40:00,57.6,42.5,29.90,WSW,249,0.0,0.0,57,0.00,,,0.00,Wunderground v.1.12,2013-10-18 21:40:00,
2013-10-18 17:45:00,57.3,42.6,29.90,WSW,249,0.0,0.0,58,0.00,,,0.00,Wunderground v.1.12,2013-10-18 21:45:00,
2013-10-18 17:50:00,57.0,42.4,29.90,WSW,238,0.0,0.0,58,0.00,,,0.00,Wunderground v.1.12,2013-10-18 21:50:00,
2013-10-18 17:55:00,56.8,41.7,29.90,SW,232,0.0,0.0,57,0.00,,,0.00,Wunderground v.1.12,2013-10-18 21:55:00,
2013-10-18 18:00:00,56.6,41.5,29.90,WSW,241,0.0,0.0,57,0.00,,,0.00,Wunderground v.1.12,2013-10-18 22:00:00,
2013-10-18 18:05:00,56.5,41.4,29.90,WSW,248,0.0,0.0,57,0.00,,,0.00,Wunderground v.1.12,2013-10-18 22:05:00,
2013-10-18 18:10:00,56.1,41.5,29.91,WSW,254,0.0,0.0,58,0.00,,,0.00,Wunderground v.1.12,2013-10-18 22:10:00,
2013-10-18 18:15:00,55.8,41.2,29.91,WSW,246,0.0,0.0,58,0.00,,,0.00,Wunderground v.1.12,2013-10-18 22:15:00,
2013-10-18 18:20:00,55.7,41.1,29.92,WSW,248,0.0,0.0,58,0.00,,,0.00,Wunderground v.1.12,2013-10-18 22:20:00,
2013-10-18 18:25:00,55.5,41.4,29.92,WSW,254,0.0,0.0,59,0.00,,,0.00,Wunderground v.1.12,2013-10-18 22:25:00,
2013-10-18 18:31:00,55.1,41.5,29.92,WSW,254,0.0,0.0,60,0.00,,,0.00,Wunderground v.1.12,2013-10-18 22:31:00,
2013-10-18 18:36:00,54.7,41.5,29.93,WSW,254,0.0,0.0,61,0.00,,,0.00,Wunderground v.1.12,2013-10-18 22:36:00,
2013-10-18 18:41:00,54.3,42.8,29.93,WSW,254,0.0,0.0,65,0.00,,,0.00,Wunderground v.1.12,2013-10-18 22:41:00,
2013-10-18 18:46:00,54.0,41.3,29.93,WSW,244,0.0,0.0,62,0.00,,,0.00,Wunderground v.1.12,2013-10-18 22:46:00,
2013-10-18 18:51:00,53.7,43.0,29.93,WSW,244,0.0,0.0,67,0.00,,,0.00,Wunderground v.1.12,2013-10-18 22:51:00,
2013-10-18 18:56:00,53.2,43.3,29.93,WSW,244,0.0,0.0,69,0.00,,,0.00,Wunderground v.1.12,2013-10-18 22:56:00,
2013-10-18 19:01:00,52.5,43.4,29.93,WSW,244,0.0,0.0,71,0.00,,,0.00,Wunderground v.1.12,2013-10-18 23:01:00,
2013-10-18 19:06:00,52.6,41.9,29.94,WSW,244,0.0,0.0,67,0.00,,,0.00,Wunderground v.1.12,2013-10-18 23:06:00,
2013-10-18 19:11:00,52.9,42.2,29.94,WSW,244,0.0,0.0,67,0.00,,,0.00,Wunderground v.1.12,2013-10-18 23:11:00,
2013-10-18 19:16:00,52.8,41.7,29.94,WSW,244,0.0,0.0,66,0.00,,,0.00,Wunderground v.1.12,2013-10-18 23:16:00,
2013-10-18 19:21:00,52.7,42.8,29.94,WSW,244,0.0,0.0,69,0.00,,,0.00,Wunderground v.1.12,2013-10-18 23:21:00,
2013-10-18 19:26:00,52.2,43.4,29.94,WSW,244,0.0,0.0,72,0.00,,,0.00,Wunderground v.1.12,2013-10-18 23:26:00,
2013-10-18 19:32:00,51.6,43.2,29.94,WSW,244,0.0,0.0,73,0.00,,,0.00,Wunderground v.1.12,2013-10-18 23:32:00,
2013-10-18 19:37:00,51.4,43.4,29.95,WSW,244,0.0,0.0,74,0.00,,,0.00,Wunderground v.1.12,2013-10-18 23:37:00,
2013-10-18 19:42:00,51.4,41.2,29.95,SW,236,0.0,0.0,68,0.00,,,0.00,Wunderground v.1.12,2013-10-18 23:42:00,
2013-10-18 19:47:00,52.1,41.9,29.95,SW,236,0.0,1.0,68,0.00,,,0.00,Wunderground v.1.12,2013-10-18 23:47:00,
2013-10-18 19:52:00,52.1,41.5,29.95,SW,236,0.0,0.0,67,0.00,,,0.00,Wunderground v.1.12,2013-10-18 23:52:00,
2013-10-18 19:57:00,52.2,42.7,29.95,SW,236,0.0,0.0,70,0.00,,,0.00,Wunderground v.1.12,2013-10-18 23:57:00,
2013-10-18 20:02:00,52.1,42.2,29.95,SW,236,0.0,0.0,69,0.00,,,0.00,Wunderground v.1.12,2013-10-19 00:02:00,
2013-10-18 20:07:00,51.6,42.1,29.95,SW,236,0.0,0.0,70,0.00,,,0.00,Wunderground v.1.12,2013-10-19 00:07:00,
2013-10-18 20:12:00,51.1,42.7,29.95,SW,236,0.0,0.0,73,0.00,,,0.00,Wunderground v.1.12,2013-10-19 00:12:00,
2013-10-18 20:17:00,50.6,41.2,29.95,SW,236,0.0,0.0,70,0.00,,,0.00,Wunderground v.1.12,2013-10-19 00:17:00,
2013-10-18 20:22:00,50.5,41.1,29.96,SW,236,0.0,0.0,70,0.00,,,0.00,Wunderground v.1.12,2013-10-19 00:22:00,
2013-10-18 20:27:00,50.5,42.5,29.96,SW,236,0.0,0.0,74,0.00,,,0.00,Wunderground v.1.12,2013-10-19 00:27:00,
2013-10-18 20:32:00,50.3,42.0,29.96,SW,236,0.0,0.0,73,0.00,,,0.00,Wunderground v.1.12,2013-10-19 00:32:00,
2013-10-18 20:38:00,50.1,42.1,29.96,SW,236,0.0,0.0,74,0.00,,,0.00,Wunderground v.1.12,2013-10-19 00:38:00,
2013-10-18 20:44:00,50.0,42.7,29.96,SW,236,0.0,0.0,76,0.00,,,0.00,Wunderground v.1.12,2013-10-19 00:44:00,
2013-10-18 20:49:00,49.5,42.2,29.96,SW,236,0.0,0.0,76,0.00,,,0.00,Wunderground v.1.12,2013-10-19 00:49:00,
2013-10-18 20:54:00,49.1,41.9,29.96,SW,236,0.0,0.0,76,0.00,,,0.00,Wunderground v.1.12,2013-10-19 00:54:00,
2013-10-18 20:59:00,48.9,42.7,29.96,SW,236,0.0,0.0,79,0.00,,,0.00,Wunderground v.1.12,2013-10-19 00:59:00,
2013-10-18 21:04:00,48.7,42.8,29.96,SW,236,0.0,0.0,80,0.00,,,0.00,Wunderground v.1.12,2013-10-19 01:04:00,
2013-10-18 21:09:00,48.5,40.9,29.97,SW,236,0.0,0.0,75,0.00,,,0.00,Wunderground v.1.12,2013-10-19 01:09:00,
2013-10-18 21:14:00,49.3,40.7,29.97,SW,236,0.0,0.0,72,0.00,,,0.00,Wunderground v.1.12,2013-10-19 01:14:00,
2013-10-18 21:19:00,49.7,42.1,29.97,SW,236,0.0,0.0,75,0.00,,,0.00,Wunderground v.1.12,2013-10-19 01:19:00,
2013-10-18 21:24:00,50.1,41.8,29.97,SW,236,0.0,0.0,73,0.00,,,0.00,Wunderground v.1.12,2013-10-19 01:24:00,
2013-10-18 21:29:00,49.9,42.3,29.97,SW,236,0.0,0.0,75,0.00,,,0.00,Wunderground v.1.12,2013-10-19 01:29:00,
2013-10-18 21:35:00,49.6,42.0,29.97,SW,236,0.0,0.0,75,0.00,,,0.00,Wunderground v.1.12,2013-10-19 01:35:00,
2013-10-18 21:40:00,49.2,42.0,29.97,SW,236,0.0,0.0,76,0.00,,,0.00,Wunderground v.1.12,2013-10-19 01:40:00,
2013-10-18 21:45:00,48.8,42.2,29.97,SW,236,0.0,0.0,78,0.00,,,0.00,Wunderground v.1.12,2013-10-19 01:45:00,
2013-10-18 21:50:00,48.6,41.7,29.97,SW,236,0.0,0.0,77,0.00,,,0.00,Wunderground v.1.12,2013-10-19 01:50:00,
2013-10-18 21:55:00,48.6,41.7,29.97,SW,236,0.0,0.0,77,0.00,,,0.00,Wunderground v.1.12,2013-10-19 01:55:00,
2013-10-18 22:00:00,48.6,41.7,29.97,SW,236,0.0,0.0,77,0.00,,,0.00,Wunderground v.1.12,2013-10-19 02:00:00,
2013-10-18 22:05:00,49.2,40.6,29.97,SW,236,0.0,0.0,72,0.00,,,0.00,Wunderground v.1.12,2013-10-19 02:05:00,
2013-10-18 22:10:00,49.3,42.4,29.97,SW,236,0.0,0.0,77,0.00,,,0.00,Wunderground v.1.12,2013-10-19 02:10:00,
2013-10-18 22:15:00,48.6,42.4,29.97,SW,236,0.0,0.0,79,0.00,,,0.00,Wunderground v.1.12,2013-10-19 02:15:00,
2013-10-18 22:21:00,48.2,41.7,29.98,SW,236,0.0,0.0,78,0.00,,,0.00,Wunderground v.1.12,2013-10-19 02:21:00,
2013-10-18 22:26:00,48.0,41.5,29.98,SW,236,0.0,0.0,78,0.00,,,0.00,Wunderground v.1.12,2013-10-19 02:26:00,
2013-10-18 22:31:00,47.9,41.7,29.98,SW,236,0.0,0.0,79,0.00,,,0.00,Wunderground v.1.12,2013-10-19 02:31:00,
2013-10-18 22:36:00,47.7,41.5,29.98,SW,236,0.0,0.0,79,0.00,,,0.00,Wunderground v.1.12,2013-10-19 02:36:00,
2013-10-18 22:41:00,47.7,41.5,29.98,SW,236,0.0,0.0,79,0.00,,,0.00,Wunderground v.1.12,2013-10-19 02:41:00,
2013-10-18 22:46:00,47.7,41.2,29.98,SW,236,0.0,0.0,78,0.00,,,0.00,Wunderground v.1.12,2013-10-19 02:46:00,
2013-10-18 22:51:00,47.5,41.3,29.98,SW,236,0.0,0.0,79,0.00,,,0.00,Wunderground v.1.12,2013-10-19 02:51:00,
2013-10-18 22:56:00,47.3,40.8,29.98,SW,236,0.0,0.0,78,0.00,,,0.00,Wunderground v.1.12,2013-10-19 02:56:00,
2013-10-18 23:02:00,47.2,40.7,29.98,SW,236,0.0,0.0,78,0.00,,,0.00,Wunderground v.1.12,2013-10-19 03:02:00,
2013-10-18 23:07:00,47.1,40.6,29.98,SW,236,0.0,0.0,78,0.00,,,0.00,Wunderground v.1.12,2013-10-19 03:07:00,
2013-10-18 23:12:00,47.1,40.6,29.98,SW,236,0.0,0.0,78,0.00,,,0.00,Wunderground v.1.12,2013-10-19 03:12:00,
2013-10-18 23:17:00,47.0,40.8,29.98,SW,236,0.0,0.0,79,0.00,,,0.00,Wunderground v.1.12,2013-10-19 03:17:00,
2013-10-18 23:22:00,47.0,40.5,29.98,SW,236,0.0,0.0,78,0.00,,,0.00,Wunderground v.1.12,2013-10-19 03:22:00,
2013-10-18 23:27:00,47.2,40.4,29.98,SW,236,0.0,0.0,77,0.00,,,0.00,Wunderground v.1.12,2013-10-19 03:27:00,
2013-10-18 23:32:00,47.1,41.2,29.98,SW,236,0.0,0.0,80,0.00,,,0.00,Wunderground v.1.12,2013-10-19 03:32:00,
2013-10-18 23:37:00,46.9,40.7,29.98,SW,236,0.0,0.0,79,0.00,,,0.00,Wunderground v.1.12,2013-10-19 03:37:00,
2013-10-18 23:42:00,46.8,41.3,29.98,SW,236,0.0,0.0,81,0.00,,,0.00,Wunderground v.1.12,2013-10-19 03:42:00,
2013-10-18 23:47:00,46.7,40.9,29.98,SW,236,0.0,0.0,80,0.00,,,0.00,Wunderground v.1.12,2013-10-19 03:47:00,
2013-10-18 23:52:00,46.8,41.0,29.98,SW,236,0.0,0.0,80,0.00,,,0.00,Wunderground v.1.12,2013-10-19 03:52:00,
2013-10-18 23:58:00,46.9,40.7,29.98,SW,236,0.0,0.0,79,0.00,,,0.00,Wunderground v.1.12,2013-10-19 03:58:00,